KK4KTV-13 Weather Reports


time (UTC)temp
C
wind
direction
speed
KPH
gust
KPH
rain 1hr
cm
rain 24hr
cm
rain mn
cm
humidity
%
barometer
mb
20260906022906 21 343 0.0 0.0 0.00 0.00 0.00 97 1012.1
20260906022402 22 343 0.0 0.0 0.00 0.00 0.00 96 1012.1
20260906021857 22 343 0.0 0.0 0.00 0.00 0.00 96 1012.1
20260906021356 22 343 0.0 0.0 0.00 0.00 0.00 95 1011.9
20260906020851 22 343 0.0 0.0 0.00 0.00 0.00 96 1011.8
20260906020350 22 343 0.0 0.0 0.00 0.00 0.00 96 1011.8
20260906015845 22 343 0.0 0.0 0.00 0.00 0.00 95 1011.5
20260906015344 22 343 0.0 0.0 0.00 0.00 0.00 95 1011.4
20260906014839 22 343 0.0 0.0 0.00 0.00 0.00 95 1011.3
20260906014333 22 343 0.0 0.0 0.00 0.00 0.00 94 1011.2
20260906013830 22 343 0.0 0.0 0.00 0.00 0.00 94 1011.4
20260906013325 22 343 0.0 0.0 0.00 0.00 0.00 94 1011.3
20260906012821 22 343 0.0 0.0 0.00 0.00 0.00 95 1011.6
20260906012320 22 343 0.0 0.0 0.00 0.00 0.00 94 1011.5
20260906011815 22 343 0.0 0.0 0.00 0.00 0.00 93 1011.6
20260906011310 22 343 0.0 0.0 0.00 0.00 0.00 93 1011.6
20260906010806 22 343 0.0 0.0 0.00 0.00 0.00 93 1011.5
20260906010302 22 343 0.0 0.0 0.00 0.00 0.00 92 1011.5
20260906005757 23 343 0.0 0.0 0.00 0.00 0.00 92 1011.5
20260906005256 23 343 0.0 0.0 0.00 0.00 0.00 91 1011.4
20260906004755 23 343 0.0 0.0 0.00 0.00 0.00 91 1011.2
20260906004250 23 343 0.0 0.0 0.00 0.00 0.00 90 1011.3
20260906003749 23 343 0.0 0.0 0.00 0.00 0.00 89 1011.3
20260906003245 23 343 0.0 0.0 0.00 0.00 0.00 88 1011.4
20260906002740 23 343 0.0 0.0 0.00 0.00 0.00 88 1011.3
20260906002234 23 343 0.0 0.0 0.00 0.00 0.00 88 1011.5
20260906001730 24 344 0.0 0.0 0.00 0.00 0.00 86 1011.5
20260906001225 24 344 0.0 0.0 0.00 0.00 0.00 87 1011.6
20260906000720 25 344 0.0 0.0 0.00 0.00 0.00 85 1011.6
20260906000215 25 344 0.0 0.0 0.00 0.00 0.00 86 1011.8
20260905235715 25 344 0.0 0.0 0.00 0.00 0.00 81 1011.7
20260905235209 25 344 0.0 0.0 0.00 0.00 0.00 83 1011.7
20260905234705 26 344 0.0 0.0 0.00 0.00 0.00 79 1011.7
20260905234200 26 344 0.0 0.0 0.00 0.00 0.00 79 1011.8
20260905233656 26 344 0.0 0.0 0.00 0.00 0.00 78 1011.8
20260905233155 27 344 0.0 0.0 0.00 0.00 0.00 76 1011.9
20260905232650 26 344 0.0 0.0 0.00 0.00 0.00 74 1011.9
20260905232145 26 345 0.0 0.0 0.00 0.00 0.00 78 1012.1
20260905231640 26 270 0.0 0.0 0.00 0.00 0.00 78 1012.0
20260905231137 26 251 1.6 3.2 0.00 0.00 0.00 78 1012.1
20260905230627 26 265 1.6 3.2 0.00 0.00 0.00 78 1012.2
20260905230124 26 218 3.2 3.2 0.00 0.00 0.00 77 1012.3
20260905225618 27 240 1.6 6.4 0.00 0.00 0.00 76 1012.0
20260905225113 28 177 3.2 6.4 0.00 0.00 0.00 71 1012.0
20260905224608 27 246 1.6 3.2 0.00 0.00 0.00 73 1011.9
20260905224107 27 275 0.0 0.0 0.00 0.00 0.00 77 1011.9
20260905223605 27 274 0.0 0.0 0.00 0.00 0.00 75 1011.8
20260905223101 27 263 0.0 4.8 0.00 0.00 0.00 74 1011.8
20260905222601 27 208 4.8 4.8 0.00 0.00 0.00 73 1011.8
20260905222056 27 241 1.6 1.6 0.00 0.00 0.00 74 1011.8
20260905221552 27 271 0.0 1.6 0.00 0.00 0.00 74 1011.9
20260905221048 28 277 3.2 3.2 0.00 0.00 0.00 70 1011.8
20260905220543 28 284 0.0 0.0 0.00 0.00 0.00 72 1011.5
20260905220039 27 255 1.6 3.2 0.00 0.00 0.00 74 1011.5
20260905215539 27 260 4.8 9.7 0.00 0.00 0.00 73 1011.6
20260905215035 28 269 0.0 1.6 0.00 0.00 0.00 71 1011.5
20260905214531 28 258 0.0 1.6 0.00 0.00 0.00 69 1011.4
20260905214026 28 185 4.8 6.4 0.00 0.00 0.00 66 1011.3
20260905213521 30 191 9.7 14.5 0.00 0.00 0.00 66 1011.5
20260905213017 30 226 1.6 1.6 0.00 0.00 0.00 69 1011.4
20260905212511 31 319 0.0 0.0 0.00 0.00 0.00 67 1011.4
20260905212010 31 319 0.0 0.0 0.00 0.00 0.00 65 1011.2
20260905211506 31 298 0.0 1.6 0.00 0.00 0.00 63 1011.3
20260905211002 31 279 0.0 1.6 0.00 0.00 0.00 61 1011.3
20260905210457 32 226 0.0 1.6 0.00 0.00 0.00 56 1011.4
20260905205956 33 261 0.0 3.2 0.00 0.00 0.00 53 1011.5
20260905205451 33 305 1.6 3.2 0.00 0.00 0.00 56 1011.4
20260905204950 34 279 1.6 3.2 0.00 0.00 0.00 53 1011.3
20260905204446 34 245 1.6 1.6 0.00 0.00 0.00 52 1011.4
20260905203945 34 278 3.2 6.4 0.00 0.00 0.00 51 1011.3
20260905203441 35 249 3.2 9.7 0.00 0.00 0.00 54 1011.5
20260905202936 35 325 6.4 6.4 0.00 0.00 0.00 53 1011.3
20260905202431 35 241 3.2 6.4 0.00 0.00 0.00 51 1011.7
20260905201927 35 220 1.6 4.8 0.00 0.00 0.00 53 1011.9
20260905201422 35 174 4.8 4.8 0.00 0.00 0.00 48 1011.9
20260905200921 34 224 1.6 3.2 0.00 0.00 0.00 51 1012.1
20260905200418 34 241 3.2 4.8 0.00 0.00 0.00 50 1012.1
20260905195915 34 227 4.8 6.4 0.00 0.00 0.00 51 1012.1
20260905195411 33 319 0.0 0.0 0.00 0.00 0.00 47 1012.2
20260905194907 33 8 1.6 3.2 0.00 0.00 0.00 50 1012.1
20260905194405 33 320 1.6 3.2 0.00 0.00 0.00 57 1012.5
20260905193900 33 312 1.6 4.8 0.00 0.00 0.00 54 1012.5
20260905193355 35 292 1.6 3.2 0.00 0.00 0.00 52 1012.4
20260905192850 35 283 3.2 3.2 0.00 0.00 0.00 51 1012.5
20260905192346 33 279 0.0 4.8 0.00 0.00 0.00 51 1012.5
20260905191846 33 285 3.2 9.7 0.00 0.00 0.00 52 1012.6
20260905191345 35 233 3.2 4.8 0.00 0.00 0.00 52 1012.5
20260905190843 33 321 1.6 3.2 0.00 0.00 0.00 50 1012.8
20260905190342 33 151 4.8 6.4 0.00 0.00 0.00 52 1012.8
20260905185841 34 229 3.2 6.4 0.00 0.00 0.00 59 1012.8
20260905185337 33 275 1.6 4.8 0.00 0.00 0.00 56 1012.9
20260905184835 33 261 0.0 1.6 0.00 0.00 0.00 53 1013.0
20260905184335 33 265 0.0 3.2 0.00 0.00 0.00 54 1013.1
20260905183833 33 250 0.0 3.2 0.00 0.00 0.00 51 1013.2
20260905183329 33 236 1.6 3.2 0.00 0.00 0.00 53 1013.2
20260905182824 33 237 1.6 3.2 0.00 0.00 0.00 51 1013.3
20260905182323 33 262 1.6 4.8 0.00 0.00 0.00 57 1013.4
20260905181819 33 264 0.0 3.2 0.00 0.00 0.00 50 1013.2
20260905181313 32 262 1.6 4.8 0.00 0.00 0.00 58 1013.6
20260905180812 32 149 4.8 4.8 0.00 0.00 0.00 54 1013.5
20260905180307 32 91 1.6 3.2 0.00 0.00 0.00 57 1013.4
20260905175803 32 355 3.2 4.8 0.00 0.00 0.00 54 1013.6
20260905175257 32 41 1.6 3.2 0.00 0.00 0.00 55 1013.8
20260905174752 33 273 3.2 4.8 0.00 0.00 0.00 58 1013.7
20260905174248 32 281 0.0 3.2 0.00 0.00 0.00 58 1014.0
20260905173744 32 289 0.0 0.0 0.00 0.00 0.00 56 1014.0
20260905173239 32 106 3.2 3.2 0.00 0.00 0.00 54 1014.1
20260905172733 32 161 4.8 4.8 0.00 0.00 0.00 54 1014.3
20260905172232 31 277 1.6 1.6 0.00 0.00 0.00 57 1014.3
20260905171729 31 156 3.2 4.8 0.00 0.00 0.00 56 1014.3
20260905171224 31 86 3.2 4.8 0.00 0.00 0.00 58 1014.0
20260905170716 31 93 3.2 4.8 0.00 0.00 0.00 59 1014.3
20260905170215 31 70 1.6 9.7 0.00 0.00 0.00 59 1014.1
20260905165709 31 141 1.6 3.2 0.00 0.00 0.00 59 1014.4
20260905165205 31 245 1.6 4.8 0.00 0.00 0.00 62 1014.4
20260905164659 31 180 4.8 4.8 0.00 0.00 0.00 56 1014.4
20260905164159 31 292 0.0 3.2 0.00 0.00 0.00 62 1014.4
20260905163655 30 325 3.2 4.8 0.00 0.00 0.00 59 1014.5
20260905163151 30 51 1.6 3.2 0.00 0.00 0.00 61 1014.4
20260905162647 30 98 3.2 6.4 0.00 0.00 0.00 62 1014.5
20260905162147 30 51 1.6 4.8 0.00 0.00 0.00 64 1014.7
20260905161647 30 348 3.2 4.8 0.00 0.00 0.00 65 1014.8
20260905161145 30 81 3.2 4.8 0.00 0.00 0.00 64 1014.7
20260905160639 29 5 4.8 4.8 0.00 0.00 0.00 63 1014.8
20260905160138 29 50 3.2 3.2 0.00 0.00 0.00 61 1014.6
20260905155633 29 337 0.0 1.6 0.00 0.00 0.00 65 1014.6
20260905155131 28 2 3.2 4.8 0.00 0.00 0.00 66 1014.8
20260905154626 28 316 1.6 3.2 0.00 0.00 0.00 65 1014.8
20260905154122 28 128 3.2 6.4 0.00 0.00 0.00 66 1014.8
20260905153618 28 51 4.8 4.8 0.00 0.00 0.00 66 1015.0
20260905153112 28 46 3.2 6.4 0.00 0.00 0.00 66 1014.9
20260905152607 27 72 4.8 6.4 0.00 0.00 0.00 71 1015.1
20260905152056 27 32 3.2 6.4 0.00 0.00 0.00 69 1015.2
20260905151551 27 359 8.0 9.7 0.00 0.00 0.00 70 1015.3
20260905151047 27 51 6.4 12.9 0.00 0.00 0.00 72 1015.1
20260905150542 27 65 3.2 11.3 0.00 0.00 0.00 73 1015.3
20260905150040 27 5 4.8 11.3 0.00 0.00 0.00 71 1015.2
20260905145533 27 85 6.4 9.7 0.00 0.00 0.00 72 1015.1
20260905145033 27 40 6.4 11.3 0.00 0.00 0.00 72 1015.3
20260905144528 26 89 4.8 14.5 0.00 0.00 0.00 74 1015.4
20260905144027 26 81 6.4 9.7 0.00 0.00 0.00 75 1015.5
20260905143526 26 135 4.8 11.3 0.00 0.00 0.00 75 1015.1
20260905143021 26 46 8.0 14.5 0.00 0.00 0.00 74 1015.3
20260905142520 26 45 8.0 12.9 0.00 0.00 0.00 75 1015.3
20260905142015 26 34 4.8 12.9 0.00 0.00 0.00 76 1015.5
20260905141509 26 27 8.0 20.9 0.00 0.00 0.00 76 1015.4
20260905141006 26 359 4.8 11.3 0.00 0.00 0.00 79 1015.4
20260905140501 26 11 11.3 16.1 0.00 0.00 0.00 80 1015.2
20260905135959 26 50 4.8 12.9 0.00 0.00 0.00 83 1015.3
20260905135455 25 56 1.6 9.7 0.00 0.00 0.00 87 1015.1
20260905134951 25 39 3.2 4.8 0.00 0.00 0.00 90 1015.1
20260905134449 25 19 3.2 6.4 0.00 0.00 0.00 92 1015.2
20260905133949 25 19 0.0 1.6 0.00 0.00 0.00 91 1014.8
20260905133444 25 32 0.0 3.2 0.00 0.00 0.00 93 1014.7
20260905132943 24 3 3.2 3.2 0.00 0.00 0.00 95 1014.7
20260905132438 24 42 3.2 3.2 0.00 0.00 0.00 95 1014.7
20260905131934 23 30 1.6 1.6 0.00 0.00 0.00 99 1014.7
20260905131430 23 354 0.0 1.6 0.00 0.00 0.00 99 1014.6
20260905130930 22 347 0.0 0.0 0.00 0.00 0.00 99 1015.0
20260905130429 23 326 0.0 0.0 0.00 0.00 0.00 99 1015.0
20260905125929 22 326 0.0 0.0 0.00 0.00 0.00 99 1015.0
20260905125424 22 292 0.0 0.0 0.00 0.00 0.00 99 1015.1
20260905124919 22 291 0.0 0.0 0.00 0.00 0.00 99 1014.8
20260905124416 21 264 0.0 1.6 0.00 0.00 0.00 99 1014.8
20260905123916 21 21 1.6 1.6 0.00 0.00 0.00 99 1015.0
20260905123413 21 39 1.6 3.2 0.00 0.00 0.00 99 1014.9
20260905122908 21 6 1.6 3.2 0.00 0.00 0.00 99 1015.0
20260905122407 21 46 0.0 0.0 0.00 0.00 0.00 99 1014.8
20260905121903 21 20 0.0 0.0 0.00 0.00 0.00 99 1014.6
20260905121358 21 19 0.0 0.0 0.00 0.00 0.00 99 1014.7
20260905120858 21 288 0.0 0.0 0.00 0.00 0.00 99 1014.5
20260905120357 21 273 0.0 0.0 0.00 0.00 0.00 99 1014.4
20260905115853 21 265 0.0 0.0 0.00 0.00 0.00 99 1014.4
20260905115352 21 265 0.0 0.0 0.00 0.00 0.00 99 1014.3
20260905114847 21 265 0.0 0.0 0.00 0.00 0.00 99 1014.1
20260905114346 21 252 0.0 0.0 0.00 0.00 0.00 99 1013.9
20260905113839 21 252 0.0 0.0 0.00 0.00 0.00 99 1013.7
20260905113335 21 252 0.0 0.0 0.00 0.00 0.00 99 1014.0
20260905112830 20 252 0.0 0.0 0.00 0.00 0.00 99 1014.0
20260905112325 20 252 0.0 0.0 0.00 0.00 0.00 99 1013.9
20260905111820 20 252 0.0 0.0 0.00 0.00 0.00 99 1013.8
20260905111315 20 252 0.0 0.0 0.00 0.00 0.00 99 1013.9
20260905110815 20 252 0.0 0.0 0.00 0.00 0.00 99 1013.8
20260905110314 20 252 0.0 0.0 0.00 0.00 0.00 99 1013.7
20260905105809 20 252 0.0 0.0 0.00 0.00 0.00 99 1013.6
20260905105308 21 252 0.0 0.0 0.00 0.00 0.00 99 1013.6
20260905104803 21 252 0.0 0.0 0.00 0.00 0.00 99 1013.7
20260905104300 21 252 0.0 0.0 0.00 0.00 0.00 99 1013.5
20260905103758 21 252 0.0 0.0 0.00 0.00 0.00 99 1013.6
20260905103254 21 252 0.0 0.0 0.00 0.00 0.00 99 1013.7
20260905102750 21 255 0.0 0.0 0.00 0.00 0.00 99 1013.7
20260905102247 21 291 0.0 0.0 0.00 0.00 0.00 99 1013.8
20260905101746 20 291 0.0 0.0 0.00 0.00 0.00 99 1013.8
20260905101245 21 291 0.0 0.0 0.00 0.00 0.00 99 1013.8
20260905100740 20 291 0.0 0.0 0.00 0.00 0.00 99 1013.6
20260905100236 21 291 0.0 0.0 0.00 0.00 0.00 99 1013.4
20260905095730 21 291 0.0 0.0 0.00 0.00 0.00 99 1013.5
20260905095229 21 291 0.0 0.0 0.00 0.00 0.00 99 1013.5
20260905094724 21 291 0.0 0.0 0.00 0.00 0.00 99 1013.5
20260905094219 21 291 0.0 0.0 0.00 0.00 0.00 99 1013.3
20260905093719 21 291 0.0 0.0 0.00 0.00 0.00 99 1013.1
20260905093215 21 291 0.0 0.0 0.00 0.00 0.00 99 1013.2
20260905092710 21 291 0.0 0.0 0.00 0.00 0.00 99 1013.2
20260905092200 21 291 0.0 0.0 0.00 0.00 0.00 99 1013.2
20260905091700 21 291 0.0 0.0 0.00 0.00 0.00 99 1013.1
20260905091200 21 291 0.0 0.0 0.00 0.00 0.00 99 1013.2
20260905090659 21 291 0.0 0.0 0.00 0.00 0.00 99 1013.1
20260905090155 21 291 0.0 0.0 0.00 0.00 0.00 99 1013.1
20260905085653 21 291 0.0 0.0 0.00 0.00 0.00 99 1013.1
20260905085149 21 291 0.0 0.0 0.00 0.00 0.00 99 1013.3
20260905084648 21 291 0.0 0.0 0.00 0.00 0.00 99 1013.2
20260905084143 21 291 0.0 0.0 0.00 0.00 0.00 99 1013.1
20260905083638 21 291 0.0 0.0 0.00 0.00 0.00 99 1012.9
20260905083134 21 291 0.0 0.0 0.00 0.00 0.00 99 1012.8
20260905082630 21 291 0.0 0.0 0.00 0.00 0.00 99 1013.0
20260905082125 21 291 0.0 0.0 0.00 0.00 0.00 99 1012.9
20260905081620 21 293 0.0 0.0 0.00 0.00 0.00 99 1013.3
20260905081114 21 293 0.0 0.0 0.00 0.00 0.00 99 1013.1
20260905080609 21 285 0.0 0.0 0.00 0.00 0.00 99 1013.2
20260905080109 21 257 0.0 0.0 0.00 0.00 0.00 99 1013.2
20260905075608 21 257 0.0 0.0 0.00 0.00 0.00 99 1013.1
20260905075103 21 257 0.0 0.0 0.00 0.00 0.00 99 1013.0
20260905074602 21 249 0.0 0.0 0.00 0.00 0.00 99 1013.1
20260905074057 21 249 0.0 0.0 0.00 0.00 0.00 99 1013.3
20260905073553 21 249 0.0 0.0 0.00 0.00 0.00 99 1013.4
20260905073048 21 249 0.0 0.0 0.00 0.00 0.00 99 1013.3
20260905072547 21 249 0.0 0.0 0.00 0.00 0.00 99 1013.4
20260905072043 21 249 0.0 0.0 0.00 0.00 0.00 99 1013.6
20260905071540 21 249 0.0 0.0 0.00 0.00 0.00 99 1013.6
20260905071034 21 249 0.0 0.0 0.00 0.00 0.00 99 1013.5
20260905070530 21 249 0.0 0.0 0.00 0.00 0.00 99 1013.9
20260905070026 21 249 0.0 0.0 0.00 0.00 0.00 99 1013.9
20260905065523 21 249 0.0 0.0 0.00 0.00 0.00 99 1013.8
20260905065019 21 249 0.0 0.0 0.00 0.00 0.00 99 1013.9
20260905064519 21 249 0.0 0.0 0.00 0.00 0.00 99 1013.9
20260905064014 21 249 0.0 0.0 0.00 0.00 0.00 99 1014.0
20260905063513 21 249 0.0 0.0 0.00 0.00 0.00 99 1014.1
20260905063010 22 249 0.0 0.0 0.00 0.00 0.00 99 1014.1
20260905062509 22 249 0.0 0.0 0.00 0.00 0.00 99 1014.1
20260905062004 22 249 0.0 0.0 0.00 0.00 0.00 99 1014.3
20260905061459 22 265 0.0 0.0 0.00 0.00 0.00 99 1014.3
20260905060958 21 265 0.0 0.0 0.00 0.00 0.00 99 1014.5
20260905060455 22 265 0.0 0.0 0.00 0.00 0.00 99 1014.6
20260905055954 22 265 0.0 0.0 0.00 0.00 0.00 99 1014.4
20260905055454 22 265 0.0 0.0 0.00 0.00 0.00 99 1014.4
20260905054949 22 265 0.0 0.0 0.00 0.00 0.00 99 1014.5
20260905054445 22 265 0.0 0.0 0.00 0.00 0.00 99 1014.5
20260905053944 21 265 0.0 0.0 0.00 0.00 0.00 99 1014.4
20260905053439 22 265 0.0 0.0 0.00 0.00 0.00 99 1014.5
20260905052935 22 265 0.0 0.0 0.00 0.00 0.00 99 1014.6
20260905052434 22 265 0.0 0.0 0.00 0.00 0.00 99 1014.6
20260905051934 22 265 0.0 0.0 0.00 0.00 0.00 99 1014.4
20260905051429 22 265 0.0 0.0 0.00 0.00 0.00 99 1014.5
20260905050927 23 265 0.0 0.0 0.00 0.00 0.00 99 1014.5
20260905050417 23 265 0.0 0.0 0.00 0.00 0.00 99 1014.6
20260905045912 22 265 0.0 0.0 0.00 0.00 0.00 99 1014.6
20260905045407 22 265 0.0 0.0 0.00 0.00 0.00 99 1014.5
20260905044903 23 265 0.0 0.0 0.00 0.00 0.00 99 1014.5
20260905044357 22 266 0.0 0.0 0.00 0.00 0.00 99 1014.5
20260905043856 22 267 0.0 0.0 0.00 0.00 0.00 99 1014.5
20260905043351 22 267 0.0 0.0 0.00 0.00 0.00 99 1014.5
20260905042846 22 267 0.0 0.0 0.00 0.00 0.00 99 1014.5
20260905042346 22 267 0.0 0.0 0.00 0.00 0.00 99 1014.7
20260905041841 22 267 0.0 0.0 0.00 0.00 0.00 99 1014.6
20260905041337 22 267 0.0 0.0 0.00 0.00 0.00 99 1014.6
20260905040832 22 267 0.0 0.0 0.00 0.00 0.00 99 1014.6
20260905040330 22 267 0.0 0.0 0.00 0.00 0.00 99 1014.6
20260905035825 22 267 0.0 0.0 0.00 0.03 0.03 99 1014.7
20260905035320 22 267 0.0 0.0 0.00 0.03 0.03 99 1014.4
20260905034817 22 267 0.0 0.0 0.00 0.03 0.03 99 1014.7
20260905034312 23 266 0.0 0.0 0.00 0.03 0.03 99 1014.6
20260905033810 23 266 0.0 0.0 0.00 0.03 0.03 99 1014.6
20260905033306 22 266 0.0 0.0 0.00 0.03 0.03 99 1014.3
20260905032800 22 266 0.0 0.0 0.00 0.03 0.03 99 1014.6
20260905032256 23 266 0.0 0.0 0.00 0.03 0.03 99 1014.6
20260905031750 23 266 0.0 0.0 0.00 0.03 0.03 99 1014.6
20260905031246 22 266 0.0 0.0 0.00 0.03 0.03 99 1014.6
20260905030741 23 262 0.0 0.0 0.00 0.03 0.03 99 1014.7
20260905030236 23 259 0.0 0.0 0.00 0.03 0.03 99 1014.6
20260905025731 23 259 0.0 0.0 0.00 0.03 0.03 98 1014.6
20260905025227 23 259 0.0 0.0 0.00 0.03 0.03 98 1014.6
20260905024722 23 260 0.0 0.0 0.00 0.03 0.03 98 1014.8
20260905024218 23 260 0.0 0.0 0.00 0.03 0.03 98 1014.6
20260905023713 23 259 0.0 0.0 0.00 0.03 0.03 98 1014.6
20260905023213 23 260 0.0 0.0 0.00 0.03 0.03 98 1014.4